FW6724 Weather Reports


Display with metric or nautical units.
time (UTC)temp
F
wind
direction
speed
MPH
gust
MPH
rain 1hr
in
rain 24hr
in
rain mn
in
humidity
%
barometer
mb
20260508231545 62 0 0.0 0.0 0.00 0.02 0.00 61 1013.2
20260508230037 62 0 0.0 0.0 0.00 0.02 0.00 61 1013.4
20260508224559 63 0 0.0 0.0 0.00 0.02 0.00 61 1013.6
20260508223038 63 132 1.0 3.0 0.00 0.02 0.00 61 1013.8
20260508221545 63 0 0.0 0.0 0.00 0.02 0.00 60 1013.9
20260508220036 63 0 0.0 0.0 0.00 0.02 0.00 60 1013.8
20260508214541 63 0 0.0 1.0 0.00 0.02 0.02 60 1013.8
20260508213039 63 131 2.0 5.0 0.00 0.02 0.02 59 1013.8
20260508211537 63 121 1.0 4.0 0.00 0.02 0.02 60 1013.8
20260508210037 63 0 0.0 0.0 0.00 0.02 0.02 60 1013.4
20260508204540 63 0 0.0 0.0 0.00 0.02 0.02 60 1013.5
20260508203039 63 0 0.0 0.0 0.00 0.02 0.02 59 1013.5
20260508201541 64 0 0.0 3.0 0.00 0.02 0.02 59 1013.4
20260508200046 64 0 1.0 4.0 0.00 0.02 0.02 58 1013.5
20260508194536 64 108 1.0 3.0 0.00 0.02 0.02 58 1013.3
20260508193049 64 120 2.0 6.0 0.00 0.02 0.02 57 1013.3
20260508191539 65 89 1.0 7.0 0.00 0.02 0.02 56 1013.3
20260508190038 65 91 2.0 6.0 0.00 0.02 0.02 54 1013.1
20260508184538 66 128 2.0 10.0 0.00 0.02 0.02 52 1013.1
20260508183048 66 132 6.0 11.0 0.00 0.02 0.02 51 1013.1
20260508181550 66 140 7.0 11.0 0.00 0.02 0.02 49 1012.9
20260508180040 67 128 5.0 11.0 0.00 0.02 0.02 49 1012.8
20260508174538 67 146 5.0 12.0 0.00 0.16 0.02 47 1012.8
20260508173039 68 126 5.0 13.0 0.00 0.16 0.02 47 1012.4
20260508171542 69 92 5.0 12.0 0.00 0.16 0.02 46 1012.5
20260508170036 70 123 7.0 14.0 0.00 0.16 0.02 44 1012.5
20260508164534 70 119 8.0 15.0 0.00 0.18 0.02 42 1012.4
20260508163042 72 73 7.0 13.0 0.00 0.18 0.02 39 1012.4
20260508161539 72 94 4.0 11.0 0.00 0.18 0.02 37 1012.3
20260508160040 72 82 5.0 12.0 0.00 0.18 0.02 36 1012.2
20260508154539 72 103 7.0 12.0 0.00 0.19 0.02 36 1012.2
20260508153037 72 113 4.0 12.0 0.00 0.19 0.02 38 1012.2
20260508151544 73 110 7.0 14.0 0.00 0.19 0.02 39 1012.2
20260508150046 72 103 4.0 11.0 0.00 0.19 0.02 38 1012.4
20260508144544 72 198 5.0 11.0 0.00 0.19 0.02 40 1012.4
20260508143041 71 183 4.0 12.0 0.00 0.19 0.02 41 1012.3
20260508141538 71 171 5.0 10.0 0.00 0.19 0.02 43 1012.5
20260508140044 72 136 4.0 9.0 0.00 0.19 0.02 41 1012.6
20260508134537 71 62 3.0 9.0 0.00 0.19 0.02 40 1012.7
20260508133042 71 180 3.0 8.0 0.00 0.19 0.02 40 1012.7
20260508131534 69 247 2.0 5.0 0.00 0.19 0.02 41 1013.1
20260508130034 69 186 4.0 10.0 0.00 0.19 0.02 41 1013.3
20260508124538 69 175 3.0 8.0 0.00 0.19 0.02 42 1013.3
20260508123039 68 318 2.0 4.0 0.00 0.19 0.02 43 1013.5
20260508121538 68 0 2.0 5.0 0.00 0.19 0.02 44 1013.8
20260508120040 68 78 0.0 3.0 0.00 0.19 0.02 47 1013.9
20260508114536 66 0 2.0 6.0 0.00 0.19 0.02 51 1014.1
20260508113107 64 297 2.0 9.0 0.00 0.19 0.02 54 1014.5
20260508111538 63 301 4.0 9.0 0.00 0.19 0.02 57 1014.7
20260508110038 63 307 4.0 10.0 0.00 0.19 0.02 60 1015.1
20260508104550 61 284 4.0 8.0 0.00 0.19 0.02 65 1015.3
20260508103035 60 283 6.0 10.0 0.00 0.19 0.02 65 1015.4
20260508101540 60 295 4.0 11.0 0.02 0.19 0.02 66 1015.4
20260508100040 60 311 3.0 9.0 0.02 0.19 0.02 66 1015.3
20260508094537 59 0 0.0 3.0 0.02 0.19 0.02 67 1015.0
20260508093037 59 270 0.0 5.0 0.01 0.18 0.01 66 1015.0
20260508091534 59 343 2.0 4.0 0.00 0.17 0.00 67 1015.5
20260508090045 58 317 1.0 3.0 0.00 0.17 0.00 67 1015.2
20260508084537 58 87 1.0 2.0 0.00 0.17 0.00 67 1014.9
20260508083039 58 0 0.0 4.0 0.00 0.17 0.00 67 1014.5
20260508081539 58 82 3.0 7.0 0.00 0.17 0.00 67 1014.6
20260508080033 58 0 0.0 1.0 0.00 0.17 0.00 67 1014.1
20260508074534 58 0 0.0 2.0 0.00 0.17 0.00 67 1014.1
20260508073039 58 134 0.0 4.0 0.00 0.17 0.00 67 1013.9
20260508071540 58 0 0.0 0.0 0.00 0.17 0.00 67 1013.7
20260508070038 58 0 0.0 0.0 0.00 0.17 0.00 67 1013.7
20260508064556 57 0 0.0 0.0 0.00 0.17 0.00 67 1013.5
20260508063033 56 0 0.0 0.0 0.00 0.17 0.00 67 1013.6
20260508061534 56 0 0.0 0.0 0.00 0.17 0.00 66 1013.4
20260508060041 56 0 0.0 0.0 0.00 0.17 0.00 66 1013.0
20260508054603 56 292 1.0 3.0 0.00 0.17 0.00 67 1012.7
20260508053037 56 0 1.0 7.0 0.00 0.17 0.00 67 1012.7
20260508051537 56 0 0.0 3.0 0.00 0.17 0.00 67 1012.8
20260508050038 56 320 1.0 3.0 0.00 0.17 0.00 67 1012.5
20260508044537 55 0 0.0 3.0 0.00 0.17 0.00 67 1012.4
20260508043044 55 0 0.0 0.0 0.00 0.17 0.00 66 1012.1
20260508041538 55 0 0.0 0.0 0.00 0.17 0.00 65 1012.3
20260508040045 56 0 0.0 3.0 0.00 0.17 0.00 64 1012.2
20260508034535 56 71 2.0 5.0 0.00 0.17 0.00 63 1011.8
20260508033034 59 30 1.0 7.0 0.00 0.17 0.00 62 1011.9
20260508031549 59 296 5.0 10.0 0.00 0.17 0.00 62 1012.0
20260508030039 58 274 4.0 11.0 0.00 0.17 0.00 64 1012.4
20260508024535 58 279 4.0 10.0 0.00 0.17 0.00 66 1012.4
20260508023034 58 266 4.0 9.0 0.00 0.17 0.00 67 1012.4
20260508021541 57 288 4.0 10.0 0.00 0.17 0.00 68 1012.6
20260508020033 57 283 4.0 9.0 0.00 0.17 0.00 69 1012.6
20260508014534 56 290 3.0 6.0 0.00 0.17 0.00 68 1012.8
20260508013040 56 298 4.0 8.0 0.00 0.17 0.00 68 1013.0
20260508011541 57 287 3.0 8.0 0.00 0.17 0.00 68 1013.1
20260508010039 58 282 3.0 7.0 0.00 0.17 0.00 68 1013.2
20260508004540 58 0 0.0 3.0 0.00 0.17 0.00 68 1013.5
20260508003032 57 290 3.0 7.0 0.00 0.17 0.00 68 1013.9
20260508001539 57 0 2.0 6.0 0.00 0.17 0.00 68 1014.0
20260508000037 58 301 1.0 3.0 0.00 0.17 0.00 67 1014.1
20260507234544 58 279 3.0 7.0 0.00 0.17 0.00 68 1014.3
20260507233037 58 298 3.0 5.0 0.00 0.17 0.00 68 1014.4